"Sample Date","Sample Time","Sample Value","Units","Flow Rate","Sample Interval","Number Channels","Micron Size 0","Counts/Channel 0","Micron Size 1","Counts/Channel 1","Micron Size 2","Counts/Channel 2","Micron Size 3","Counts/Channel 3","Micron Size 4","Counts/Channel 4","Micron Size 5","Counts/Channel 5","Micron Size 6","Counts/Channel 6","Micron Size 7","Counts/Channel 7","Micron Size 8","Counts/Channel 8","Micron Size 9","Counts/Channel 9","Micron Size 10","Counts/Channel 10","Micron Size 11","Counts/Channel 11","Micron Size 12","Counts/Channel 12","Micron Size 13","Counts/Channel 13","Micron Size 14","Counts/Channel 14","Micron Size 15","Counts/Channel 15","Micron Size 16","Counts/Channel 16","Micron Size 17","Counts/Channel 17","Micron Size 18","Counts/Channel 18","Micron Size 19","Counts/Channel 19","Micron Size 20","Counts/Channel 20","Micron Size 21","Counts/Channel 21","Micron Size 22","Counts/Channel 22","Micron Size 23","Counts/Channel 23","Micron Size 24","Counts/Channel 24","Micron Size 25","Counts/Channel 25","Micron Size 26","Counts/Channel 26","Micron Size 27","Counts/Channel 27","Micron Size 28","Counts/Channel 28","Micron Size 29","Counts/Channel 29","Micron Size 30","Counts/Channel 30","Micron Size 31","Counts/Channel 31"
"03/05/08","03:00:00",46105.000,"cc",28263.379,6.00,6,0.100,40162.000,0.200,3436.000,0.300,1089.000,0.500,1069.000,1.000,349.000,5.000,0
"03/05/08","03:00:06",45508.000,"cc",28253.779,6.00,6,0.100,39954.000,0.200,3243.000,0.300,964.000,0.500,1011.000,1.000,336.000,5.000,0
"03/05/08","03:00:12",46059.000,"cc",28328.070,6.00,6,0.100,40214.000,0.200,3351.000,0.300,1158.000,0.500,994.000,1.000,342.000,5.000,0
"03/05/08","03:00:18",56954.000,"cc",28360.254,6.00,6,0.100,45359.000,0.200,5900.000,0.300,2785.000,0.500,2216.000,1.000,694.000,5.000,0
"03/05/08","03:00:24",48746.000,"cc",28340.846,6.00,6,0.100,41257.000,0.200,4069.000,0.300,1579.000,0.500,1389.000,1.000,452.000,5.000,0
"03/05/08","03:00:30",47525.000,"cc",28312.934,6.00,6,0.100,40778.000,0.200,3619.000,0.300,1401.000,0.500,1303.000,1.000,424.000,5.000,0
"03/05/08","03:00:36",49023.000,"cc",28315.820,6.00,6,0.100,41236.000,0.200,4228.000,0.300,1631.000,0.500,1453.000,1.000,475.000,5.000,0
"03/05/08","03:00:42",46437.000,"cc",28305.152,6.00,6,0.100,40337.000,0.200,3523.000,0.300,1186.000,0.500,1034.000,1.000,357.000,5.000,0
"03/05/08","03:00:48",46071.000,"cc",28287.686,6.00,6,0.100,40315.000,0.200,3338.000,0.300,1016.000,0.500,1052.000,1.000,350.000,5.000,0
"03/05/08","03:00:54",46943.000,"cc",28347.965,6.00,6,0.100,40857.000,0.200,3465.000,0.300,1160.000,0.500,1053.000,1.000,408.000,5.000,0
"03/05/08","03:01:00",50962.000,"cc",28332.471,6.00,6,0.100,42287.000,0.200,4586.000,0.300,1965.000,0.500,1584.000,1.000,540.000,5.000,0
"03/05/08","03:01:06",49964.000,"cc",28362.596,6.00,6,0.100,41624.000,0.200,4361.000,0.300,1842.000,0.500,1596.000,1.000,541.000,5.000,0
"03/05/08","03:01:12",47077.000,"cc",28312.820,6.00,6,0.100,40614.000,0.200,3660.000,0.300,1272.000,0.500,1108.000,1.000,423.000,5.000,0
"03/05/08","03:01:18",48494.000,"cc",28261.094,6.00,6,0.100,41412.000,0.200,3938.000,0.300,1436.000,0.500,1292.000,1.000,416.000,5.000,0
"03/05/08","03:01:24",46778.000,"cc",28335.594,6.00,6,0.100,40555.000,0.200,3476.000,0.300,1171.000,0.500,1192.000,1.000,384.000,5.000,0
"03/05/08","03:01:30",49387.000,"cc",28281.811,6.00,6,0.100,41598.000,0.200,4175.000,0.300,1601.000,0.500,1539.000,1.000,474.000,5.000,0
"03/05/08","03:01:36",50739.000,"cc",28329.971,6.00,6,0.100,42110.000,0.200,4589.000,0.300,1844.000,0.500,1620.000,1.000,576.000,5.000,0
"03/05/08","03:01:42",49065.000,"cc",28306.035,6.00,6,0.100,41160.000,0.200,4198.000,0.300,1635.000,0.500,1526.000,1.000,546.000,5.000,0
"03/05/08","03:01:48",55209.000,"cc",28377.549,6.00,6,0.100,43926.000,0.200,5784.000,0.300,2673.000,0.500,2120.000,1.000,706.000,5.000,0
"03/05/08","03:01:54",53901.000,"cc",28279.691,6.00,6,0.100,43445.000,0.200,5283.000,0.300,2414.000,0.500,2088.000,1.000,671.000,5.000,0
"03/05/08","03:02:00",50668.000,"cc",28309.174,6.00,6,0.100,42073.000,0.200,4505.000,0.300,1936.000,0.500,1611.000,1.000,543.000,5.000,0
"03/05/08","03:02:06",52787.000,"cc",28343.070,6.00,6,0.100,43115.000,0.200,5027.000,0.300,2179.000,0.500,1896.000,1.000,570.000,5.000,0
"03/05/08","03:02:12",46623.000,"cc",28359.449,6.00,6,0.100,40544.000,0.200,3311.000,0.300,1183.000,0.500,1178.000,1.000,407.000,5.000,0
"03/05/08","03:02:18",47712.000,"cc",28213.072,6.00,6,0.100,40795.000,0.200,3818.000,0.300,1394.000,0.500,1238.000,1.000,467.000,5.000,0
"03/05/08","03:02:24",45323.000,"cc",28330.828,6.00,6,0.100,39797.000,0.200,3162.000,0.300,1058.000,0.500,969.000,1.000,337.000,5.000,0
"03/05/08","03:02:30",46744.000,"cc",28363.502,6.00,6,0.100,40395.000,0.200,3538.000,0.300,1275.000,0.500,1139.000,1.000,397.000,5.000,0
"03/05/08","03:02:36",46764.000,"cc",28301.432,6.00,6,0.100,40407.000,0.200,3529.000,0.300,1246.000,0.500,1209.000,1.000,373.000,5.000,0
"03/05/08","03:02:42",46140.000,"cc",28287.967,6.00,6,0.100,40193.000,0.200,3308.000,0.300,1135.000,0.500,1116.000,1.000,388.000,5.000,0
"03/05/08","03:02:48",56030.000,"cc",28271.029,6.00,6,0.100,44194.000,0.200,5916.000,0.300,2881.000,0.500,2295.000,1.000,744.000,5.000,0
"03/05/08","03:02:54",51698.000,"cc",28313.959,6.00,6,0.100,42442.000,0.200,4733.000,0.300,2091.000,0.500,1802.000,1.000,630.000,5.000,0
"03/05/08","03:03:00",49474.000,"cc",28377.016,6.00,6,0.100,41242.000,0.200,4316.000,0.300,1804.000,0.500,1572.000,1.000,540.000,5.000,0
"03/05/08","03:03:06",53355.000,"cc",28333.178,6.00,6,0.100,43361.000,0.200,5142.000,0.300,2283.000,0.500,1942.000,1.000,627.000,5.000,0
"03/05/08","03:03:12",49805.000,"cc",28274.490,6.00,6,0.100,41851.000,0.200,4248.000,0.300,1757.000,0.500,1437.000,1.000,512.000,5.000,0
"03/05/08","03:03:18",47457.000,"cc",28333.834,6.00,6,0.100,40668.000,0.200,3795.000,0.300,1343.000,0.500,1255.000,1.000,396.000,5.000,0
"03/05/08","03:03:24",53384.000,"cc",28356.326,6.00,6,0.100,43277.000,0.200,5286.000,0.300,2265.000,0.500,1868.000,1.000,688.000,5.000,0
"03/05/08","03:03:30",53324.000,"cc",28363.223,6.00,6,0.100,43295.000,0.200,5195.000,0.300,2258.000,0.500,1928.000,1.000,648.000,5.000,0
"03/05/08","03:03:36",49724.000,"cc",28277.654,6.00,6,0.100,41643.000,0.200,4258.000,0.300,1748.000,0.500,1556.000,1.000,519.000,5.000,0
"03/05/08","03:03:42",57962.000,"cc",28258.299,6.00,6,0.100,45228.000,0.200,6307.000,0.300,3166.000,0.500,2456.000,1.000,805.000,5.000,0
"03/05/08","03:03:48",50013.000,"cc",28344.207,6.00,6,0.100,41911.000,0.200,4305.000,0.300,1734.000,0.500,1536.000,1.000,527.000,5.000,0
"03/05/08","03:03:54",55363.000,"cc",28344.346,6.00,6,0.100,44074.000,0.200,5732.000,0.300,2637.000,0.500,2195.000,1.000,725.000,5.000,0
"03/05/08","03:04:00",58847.000,"cc",28346.473,6.00,6,0.100,45683.000,0.200,6557.000,0.300,3157.000,0.500,2598.000,1.000,852.000,5.000,0
"03/05/08","03:04:06",60720.000,"cc",28293.729,6.00,6,0.100,46657.000,0.200,6850.000,0.300,3453.000,0.500,2827.000,1.000,933.000,5.000,0
"03/05/08","03:04:12",57028.000,"cc",28374.734,6.00,6,0.100,44977.000,0.200,5900.000,0.300,2951.000,0.500,2433.000,1.000,767.000,5.000,0
"03/05/08","03:04:18",54013.000,"cc",28242.303,6.00,6,0.100,43396.000,0.200,5409.000,0.300,2439.000,0.500,2140.000,1.000,629.000,5.000,0
"03/05/08","03:04:24",55862.000,"cc",28315.516,6.00,6,0.100,44282.000,0.200,5846.000,0.300,2887.000,0.500,2166.000,1.000,681.000,5.000,0
"03/05/08","03:04:30",51558.000,"cc",28316.840,6.00,6,0.100,42467.000,0.200,4827.000,0.300,2083.000,0.500,1658.000,1.000,523.000,5.000,0
"03/05/08","03:04:36",58298.000,"cc",28300.096,6.00,6,0.100,45594.000,0.200,6392.000,0.300,3108.000,0.500,2407.000,1.000,797.000,5.000,0
"03/05/08","03:04:42",48414.000,"cc",28326.441,6.00,6,0.100,41338.000,0.200,3911.000,0.300,1450.000,0.500,1291.000,1.000,424.000,5.000,0
"03/05/08","03:04:48",48075.000,"cc",28298.031,6.00,6,0.100,41000.000,0.200,3874.000,0.300,1467.000,0.500,1299.000,1.000,435.000,5.000,0
"03/05/08","03:04:54",51369.000,"cc",28351.793,6.00,6,0.100,42276.000,0.200,4751.000,0.300,2000.000,0.500,1737.000,1.000,604.000,5.000,1.000
"03/05/08","03:05:00",52132.000,"cc",28308.004,6.00,6,0.100,42509.000,0.200,4964.000,0.300,2214.000,0.500,1822.000,1.000,623.000,5.000,0
"03/05/08","03:05:06",47754.000,"cc",28318.191,6.00,6,0.100,40978.000,0.200,3746.000,0.300,1452.000,0.500,1171.000,1.000,407.000,5.000,0
"03/05/08","03:05:12",48516.000,"cc",28309.287,6.00,6,0.100,41420.000,0.200,3877.000,0.300,1439.000,0.500,1312.000,1.000,468.000,5.000,0
"03/05/08","03:05:18",49261.000,"cc",28351.221,6.00,6,0.100,41314.000,0.200,4286.000,0.300,1704.000,0.500,1441.000,1.000,516.000,5.000,0
"03/05/08","03:05:24",47280.000,"cc",28324.828,6.00,6,0.100,40657.000,0.200,3689.000,0.300,1332.000,0.500,1192.000,1.000,410.000,5.000,0
"03/05/08","03:05:30",46867.000,"cc",28322.402,6.00,6,0.100,40321.000,0.200,3663.000,0.300,1287.000,0.500,1190.000,1.000,406.000,5.000,0
"03/05/08","03:05:36",46281.000,"cc",28296.012,6.00,6,0.100,40042.000,0.200,3422.000,0.300,1214.000,0.500,1190.000,1.000,413.000,5.000,0
"03/05/08","03:05:42",50393.000,"cc",28391.295,6.00,6,0.100,41820.000,0.200,4378.000,0.300,1921.000,0.500,1701.000,1.000,573.000,5.000,0
"03/05/08","03:05:48",57650.000,"cc",28234.920,6.00,6,0.100,44929.000,0.200,6239.000,0.300,2968.000,0.500,2631.000,1.000,883.000,5.000,0
"03/05/08","03:05:54",50057.000,"cc",28359.195,6.00,6,0.100,41718.000,0.200,4328.000,0.300,1859.000,0.500,1591.000,1.000,561.000,5.000,0
"03/05/08","03:06:00",52570.000,"cc",28290.797,6.00,6,0.100,42863.000,0.200,4973.000,0.300,2234.000,0.500,1854.000,1.000,646.000,5.000,0
"03/05/08","03:06:06",48129.000,"cc",28301.752,6.00,6,0.100,41089.000,0.200,3826.000,0.300,1421.000,0.500,1364.000,1.000,429.000,5.000,0
"03/05/08","03:06:12",47171.000,"cc",28346.365,6.00,6,0.100,40475.000,0.200,3691.000,0.300,1351.000,0.500,1259.000,1.000,395.000,5.000,0
"03/05/08","03:06:18",48927.000,"cc",28324.713,6.00,6,0.100,41230.000,0.200,4090.000,0.300,1627.000,0.500,1464.000,1.000,516.000,5.000,0
"03/05/08","03:06:24",57785.000,"cc",28320.201,6.00,6,0.100,44558.000,0.200,6347.000,0.300,3237.000,0.500,2671.000,1.000,972.000,5.000,0
"03/05/08","03:06:30",56597.000,"cc",28343.629,6.00,6,0.100,44424.000,0.200,5946.000,0.300,2943.000,0.500,2519.000,1.000,765.000,5.000,0
"03/05/08","03:06:36",57585.000,"cc",28335.713,6.00,6,0.100,44813.000,0.200,6008.000,0.300,3178.000,0.500,2631.000,1.000,955.000,5.000,0
"03/05/08","03:06:42",54720.000,"cc",28272.484,6.00,6,0.100,43452.000,0.200,5488.000,0.300,2700.000,0.500,2248.000,1.000,832.000,5.000,0
"03/05/08","03:06:48",50323.000,"cc",28280.438,6.00,6,0.100,41743.000,0.200,4408.000,0.300,1817.000,0.500,1768.000,1.000,587.000,5.000,0
"03/05/08","03:06:54",49596.000,"cc",28335.213,6.00,6,0.100,41609.000,0.200,4124.000,0.300,1772.000,0.500,1527.000,1.000,564.000,5.000,0
"03/05/08","03:07:00",49599.000,"cc",28288.551,6.00,6,0.100,41575.000,0.200,4186.000,0.300,1687.000,0.500,1599.000,1.000,552.000,5.000,0
"03/05/08","03:07:06",53210.000,"cc",28318.397,6.00,6,0.100,42925.000,0.200,4972.000,0.300,2379.000,0.500,2167.000,1.000,767.000,5.000,0
"03/05/08","03:07:12",53076.000,"cc",28361.910,6.00,6,0.100,42951.000,0.200,5025.000,0.300,2260.000,0.500,2103.000,1.000,737.000,5.000,0
"03/05/08","03:07:18",53302.000,"cc",28333.897,6.00,6,0.100,43031.000,0.200,5077.000,0.300,2424.000,0.500,2044.000,1.000,726.000,5.000,0
"03/05/08","03:07:24",47483.000,"cc",28307.047,6.00,6,0.100,40601.000,0.200,3761.000,0.300,1364.000,0.500,1294.000,1.000,463.000,5.000,0
"03/05/08","03:07:30",46492.000,"cc",28298.082,6.00,6,0.100,40206.000,0.200,3473.000,0.300,1212.000,0.500,1213.000,1.000,388.000,5.000,0
"03/05/08","03:07:36",47294.000,"cc",28348.260,6.00,6,0.100,40474.000,0.200,3685.000,0.300,1407.000,0.500,1308.000,1.000,420.000,5.000,0
"03/05/08","03:07:42",47238.000,"cc",28266.729,6.00,6,0.100,40615.000,0.200,3658.000,0.300,1295.000,0.500,1248.000,1.000,422.000,5.000,0
"03/05/08","03:07:48",48206.000,"cc",28316.981,6.00,6,0.100,40957.000,0.200,4037.000,0.300,1425.000,0.500,1385.000,1.000,402.000,5.000,0
"03/05/08","03:07:54",62437.000,"cc",28311.104,6.00,6,0.100,47721.000,0.200,7332.000,0.300,3647.000,0.500,2865.000,1.000,872.000,5.000,0
"03/05/08","03:08:00",55720.000,"cc",28307.252,6.00,6,0.100,44501.000,0.200,5767.000,0.300,2663.000,0.500,2119.000,1.000,670.000,5.000,0
"03/05/08","03:08:06",49848.000,"cc",28303.504,6.00,6,0.100,41747.000,0.200,4445.000,0.300,1715.000,0.500,1479.000,1.000,462.000,5.000,0
"03/05/08","03:08:12",51524.000,"cc",28297.027,6.00,6,0.100,42318.000,0.200,4779.000,0.300,2130.000,0.500,1746.000,1.000,551.000,5.000,0
"03/05/08","03:08:18",51835.000,"cc",28328.238,6.00,6,0.100,42805.000,0.200,4712.000,0.300,2064.000,0.500,1686.000,1.000,568.000,5.000,0
"03/05/08","03:08:24",49438.000,"cc",28417.090,6.00,6,0.100,41335.000,0.200,4330.000,0.300,1732.000,0.500,1514.000,1.000,527.000,5.000,0
"03/05/08","03:08:30",51544.000,"cc",28297.867,6.00,6,0.100,42308.000,0.200,4806.000,0.300,2045.000,0.500,1790.000,1.000,595.000,5.000,0
"03/05/08","03:08:36",48197.000,"cc",28282.672,6.00,6,0.100,41053.000,0.200,3902.000,0.300,1458.000,0.500,1344.000,1.000,440.000,5.000,0
"03/05/08","03:08:42",48464.000,"cc",28319.215,6.00,6,0.100,40990.000,0.200,4052.000,0.300,1585.000,0.500,1380.000,1.000,457.000,5.000,0
"03/05/08","03:08:48",50830.000,"cc",28343.063,6.00,6,0.100,41952.000,0.200,4705.000,0.300,1947.000,0.500,1674.000,1.000,552.000,5.000,0
"03/05/08","03:08:54",54620.000,"cc",28324.293,6.00,6,0.100,43698.000,0.200,5562.000,0.300,2481.000,0.500,2142.000,1.000,737.000,5.000,0
"03/05/08","03:09:00",46618.000,"cc",28322.623,6.00,6,0.100,40311.000,0.200,3492.000,0.300,1235.000,0.500,1165.000,1.000,415.000,5.000,0
"03/05/08","03:09:06",45612.000,"cc",28349.170,6.00,6,0.100,39700.000,0.200,3371.000,0.300,1114.000,0.500,1020.000,1.000,407.000,5.000,0
"03/05/08","03:09:12",46168.000,"cc",28376.811,6.00,6,0.100,39799.000,0.200,3596.000,0.300,1227.000,0.500,1110.000,1.000,436.000,5.000,0
"03/05/08","03:09:18",44471.000,"cc",28282.461,6.00,6,0.100,39367.000,0.200,2993.000,0.300,863.000,0.500,928.000,1.000,320.000,5.000,0
"03/05/08","03:09:24",48317.000,"cc",28248.719,6.00,6,0.100,41046.000,0.200,3979.000,0.300,1540.000,0.500,1334.000,1.000,418.000,5.000,0
"03/05/08","03:09:30",46174.000,"cc",28309.100,6.00,6,0.100,39954.000,0.200,3431.000,0.300,1201.000,0.500,1190.000,1.000,398.000,5.000,0
"03/05/08","03:09:36",46481.000,"cc",28343.690,6.00,6,0.100,40270.000,0.200,3525.000,0.300,1192.000,0.500,1083.000,1.000,411.000,5.000,0
"03/05/08","03:09:42",46203.000,"cc",28304.352,6.00,6,0.100,39827.000,0.200,3600.000,0.300,1216.000,0.500,1159.000,1.000,401.000,5.000,0
"03/05/08","03:09:48",49099.000,"cc",28371.332,6.00,6,0.100,41304.000,0.200,4239.000,0.300,1674.000,0.500,1406.000,1.000,476.000,5.000,0
"03/05/08","03:09:54",46456.000,"cc",28253.461,6.00,6,0.100,40160.000,0.200,3524.000,0.300,1248.000,0.500,1139.000,1.000,385.000,5.000,0
"03/05/08","03:10:00",45875.000,"cc",28293.207,6.00,6,0.100,39562.000,0.200,3495.000,0.300,1267.000,0.500,1139.000,1.000,412.000,5.000,0
"03/05/08","03:10:06",48771.000,"cc",28258.549,6.00,6,0.100,41065.000,0.200,4087.000,0.300,1623.000,0.500,1491.000,1.000,505.000,5.000,0
"03/05/08","03:10:12",50687.000,"cc",28380.981,6.00,6,0.100,41880.000,0.200,4414.000,0.300,2031.000,0.500,1745.000,1.000,617.000,5.000,0
"03/05/08","03:10:18",49745.000,"cc",28379.898,6.00,6,0.100,41311.000,0.200,4251.000,0.300,1788.000,0.500,1751.000,1.000,644.000,5.000,0
"03/05/08","03:10:24",51761.000,"cc",28285.830,6.00,6,0.100,42084.000,0.200,4762.000,0.300,2209.000,0.500,1983.000,1.000,723.000,5.000,0
"03/05/08","03:10:30",55387.000,"cc",28248.809,6.00,6,0.100,43698.000,0.200,5763.000,0.300,2789.000,0.500,2300.000,1.000,837.000,5.000,0
"03/05/08","03:10:36",53373.000,"cc",28271.717,6.00,6,0.100,42836.000,0.200,5171.000,0.300,2418.000,0.500,2198.000,1.000,750.000,5.000,0
"03/05/08","03:10:42",46771.000,"cc",28319.762,6.00,6,0.100,40058.000,0.200,3714.000,0.300,1316.000,0.500,1270.000,1.000,413.000,5.000,0
"03/05/08","03:10:48",47402.000,"cc",28331.397,6.00,6,0.100,40431.000,0.200,3696.000,0.300,1410.000,0.500,1378.000,1.000,487.000,5.000,0
"03/05/08","03:10:54",47845.000,"cc",28397.627,6.00,6,0.100,40593.000,0.200,3846.000,0.300,1521.000,0.500,1409.000,1.000,476.000,5.000,0
"03/05/08","03:11:00",46472.000,"cc",28331.113,6.00,6,0.100,40116.000,0.200,3577.000,0.300,1240.000,0.500,1131.000,1.000,408.000,5.000,0
"03/05/08","03:11:06",47834.000,"cc",28315.943,6.00,6,0.100,41021.000,0.200,3735.000,0.300,1314.000,0.500,1314.000,1.000,450.000,5.000,0
"03/05/08","03:11:12",54053.000,"cc",28327.340,6.00,6,0.100,43512.000,0.200,5315.000,0.300,2342.000,0.500,2136.000,1.000,748.000,5.000,0
"03/05/08","03:11:18",55610.000,"cc",28339.012,6.00,6,0.100,43966.000,0.200,5728.000,0.300,2717.000,0.500,2298.000,1.000,901.000,5.000,0
"03/05/08","03:11:24",58872.000,"cc",28250.682,6.00,6,0.100,45437.000,0.200,6368.000,0.300,3227.000,0.500,2810.000,1.000,1030.000,5.000,0
"03/05/08","03:11:30",58207.000,"cc",28280.592,6.00,6,0.100,45015.000,0.200,6161.000,0.300,3233.000,0.500,2787.000,1.000,1011.000,5.000,0
"03/05/08","03:11:36",55017.000,"cc",28364.418,6.00,6,0.100,43948.000,0.200,5404.000,0.300,2522.000,0.500,2300.000,1.000,843.000,5.000,0
"03/05/08","03:11:42",53048.000,"cc",28277.910,6.00,6,0.100,42714.000,0.200,5051.000,0.300,2407.000,0.500,2163.000,1.000,713.000,5.000,0
"03/05/08","03:11:48",51497.000,"cc",28322.811,6.00,6,0.100,42156.000,0.200,4865.000,0.300,1996.000,0.500,1843.000,1.000,637.000,5.000,0
"03/05/08","03:11:54",51045.000,"cc",28360.879,6.00,6,0.100,41578.000,0.200,4638.000,0.300,2144.000,0.500,1982.000,1.000,703.000,5.000,0
"03/05/08","03:12:00",52685.000,"cc",28318.227,6.00,6,0.100,42966.000,0.200,4761.000,0.300,2288.000,0.500,1927.000,1.000,743.000,5.000,0
"03/05/08","03:12:06",50686.000,"cc",28341.572,6.00,6,0.100,42022.000,0.200,4376.000,0.300,1911.000,0.500,1753.000,1.000,624.000,5.000,0
"03/05/08","03:12:12",53584.000,"cc",28351.065,6.00,6,0.100,43066.000,0.200,5129.000,0.300,2425.000,0.500,2194.000,1.000,770.000,5.000,0
"03/05/08","03:12:18",53495.000,"cc",28248.490,6.00,6,0.100,42720.000,0.200,5238.000,0.300,2429.000,0.500,2321.000,1.000,787.000,5.000,0
"03/05/08","03:12:24",57734.000,"cc",28269.336,6.00,6,0.100,44911.000,0.200,6106.000,0.300,3111.000,0.500,2666.000,1.000,940.000,5.000,0
"03/05/08","03:12:30",63460.000,"cc",28301.668,6.00,6,0.100,47315.000,0.200,7382.000,0.300,4057.000,0.500,3456.000,1.000,1250.000,5.000,0
"03/05/08","03:12:36",61244.000,"cc",28334.107,6.00,6,0.100,46322.000,0.200,7040.000,0.300,3634.000,0.500,3104.000,1.000,1144.000,5.000,0
"03/05/08","03:12:42",63012.000,"cc",28374.178,6.00,6,0.100,46911.000,0.200,7364.000,0.300,4079.000,0.500,3438.000,1.000,1220.000,5.000,0
"03/05/08","03:12:48",64473.000,"cc",28298.904,6.00,6,0.100,47496.000,0.200,7675.000,0.300,4163.000,0.500,3729.000,1.000,1409.000,5.000,1.000
"03/05/08","03:12:54",62448.000,"cc",28362.272,6.00,6,0.100,46620.000,0.200,7269.000,0.300,3916.000,0.500,3404.000,1.000,1239.000,5.000,0
"03/05/08","03:13:00",58869.000,"cc",28319.607,6.00,6,0.100,44786.000,0.200,6510.000,0.300,3453.000,0.500,3028.000,1.000,1092.000,5.000,0
"03/05/08","03:13:06",57033.000,"cc",28313.701,6.00,6,0.100,44340.000,0.200,5943.000,0.300,3029.000,0.500,2701.000,1.000,1020.000,5.000,0
"03/05/08","03:13:12",51177.000,"cc",28263.006,6.00,6,0.100,41914.000,0.200,4588.000,0.300,2114.000,0.500,1851.000,1.000,710.000,5.000,0
"03/05/08","03:13:18",51786.000,"cc",28332.045,6.00,6,0.100,41950.000,0.200,4798.000,0.300,2259.000,0.500,2034.000,1.000,745.000,5.000,0
"03/05/08","03:13:24",49735.000,"cc",28302.221,6.00,6,0.100,41230.000,0.200,4369.000,0.300,1758.000,0.500,1748.000,1.000,630.000,5.000,0
"03/05/08","03:13:30",52875.000,"cc",28328.211,6.00,6,0.100,42435.000,0.200,5007.000,0.300,2380.000,0.500,2213.000,1.000,839.000,5.000,1.000
"03/05/08","03:13:36",54881.000,"cc",28372.881,6.00,6,0.100,43301.000,0.200,5252.000,0.300,2775.000,0.500,2580.000,1.000,973.000,5.000,0
"03/05/08","03:13:42",52410.000,"cc",28276.590,6.00,6,0.100,43031.000,0.200,4771.000,0.300,2013.000,0.500,1880.000,1.000,715.000,5.000,0
"03/05/08","03:13:48",56793.000,"cc",28320.328,6.00,6,0.100,45231.000,0.200,5607.000,0.300,2578.000,0.500,2467.000,1.000,910.000,5.000,0
"03/05/08","03:13:54",63980.000,"cc",28255.494,6.00,6,0.100,48286.000,0.200,7178.000,0.300,3741.000,0.500,3464.000,1.000,1311.000,5.000,0
"03/05/08","03:14:00",66665.000,"cc",28360.594,6.00,6,0.100,48052.000,0.200,8385.000,0.300,4681.000,0.500,4067.000,1.000,1480.000,5.000,0
"03/05/08","03:14:06",65794.000,"cc",28338.854,6.00,6,0.100,49403.000,0.200,7558.000,0.300,3980.000,0.500,3573.000,1.000,1280.000,5.000,0
"03/05/08","03:14:12",59572.000,"cc",28314.822,6.00,6,0.100,46339.000,0.200,6447.000,0.300,3094.000,0.500,2713.000,1.000,979.000,5.000,0
"03/05/08","03:14:18",67109.000,"cc",28238.777,6.00,6,0.100,50136.000,0.200,7857.000,0.300,4146.000,0.500,3653.000,1.000,1317.000,5.000,0
"03/05/08","03:14:24",73938.000,"cc",28353.816,6.00,6,0.100,51649.000,0.200,9928.000,0.300,5713.000,0.500,4822.000,1.000,1826.000,5.000,0
"03/05/08","03:14:30",68981.000,"cc",28346.596,6.00,6,0.100,50022.000,0.200,8509.000,0.300,4791.000,0.500,4151.000,1.000,1508.000,5.000,0
"03/05/08","03:14:36",54901.000,"cc",28305.717,6.00,6,0.100,43644.000,0.200,5311.000,0.300,2646.000,0.500,2429.000,1.000,871.000,5.000,0
"03/05/08","03:14:42",59551.000,"cc",28340.309,6.00,6,0.100,45580.000,0.200,6506.000,0.300,3418.000,0.500,2959.000,1.000,1088.000,5.000,0
"03/05/08","03:14:48",53873.000,"cc",28299.502,6.00,6,0.100,43065.000,0.200,5248.000,0.300,2489.000,0.500,2254.000,1.000,817.000,5.000,0
"03/05/08","03:14:54",54803.000,"cc",28271.961,6.00,6,0.100,43613.000,0.200,5444.000,0.300,2584.000,0.500,2359.000,1.000,803.000,5.000,0
"03/05/08","03:15:00",58506.000,"cc",28361.158,6.00,6,0.100,44523.000,0.200,6368.000,0.300,3320.000,0.500,3148.000,1.000,1147.000,5.000,0
"03/05/08","03:15:06",57492.000,"cc",28262.680,6.00,6,0.100,44327.000,0.200,6200.000,0.300,3151.000,0.500,2756.000,1.000,1058.000,5.000,0
"03/05/08","03:15:12",57729.000,"cc",28334.633,6.00,6,0.100,44792.000,0.200,6179.000,0.300,3066.000,0.500,2775.000,1.000,917.000,5.000,0
"03/05/08","03:15:18",59488.000,"cc",28336.219,6.00,6,0.100,45200.000,0.200,6644.000,0.300,3516.000,0.500,3057.000,1.000,1071.000,5.000,0
"03/05/08","03:15:24",61398.000,"cc",28282.508,6.00,6,0.100,46290.000,0.200,7083.000,0.300,3736.000,0.500,3175.000,1.000,1114.000,5.000,0
"03/05/08","03:15:30",59877.000,"cc",28394.693,6.00,6,0.100,45734.000,0.200,6585.000,0.300,3440.000,0.500,3019.000,1.000,1099.000,5.000,0
"03/05/08","03:15:36",51577.000,"cc",28331.949,6.00,6,0.100,42150.000,0.200,4710.000,0.300,2092.000,0.500,1916.000,1.000,709.000,5.000,0
"03/05/08","03:15:42",51270.000,"cc",28301.158,6.00,6,0.100,42088.000,0.200,4586.000,0.300,2022.000,0.500,1889.000,1.000,685.000,5.000,0
"03/05/08","03:15:48",50041.000,"cc",28299.594,6.00,6,0.100,41565.000,0.200,4329.000,0.300,1824.000,0.500,1711.000,1.000,612.000,5.000,0
"03/05/08","03:15:54",51936.000,"cc",28308.725,6.00,6,0.100,42310.000,0.200,4694.000,0.300,2117.000,0.500,2058.000,1.000,757.000,5.000,0
"03/05/08","03:16:00",51226.000,"cc",28333.330,6.00,6,0.100,41945.000,0.200,4615.000,0.300,2009.000,0.500,1932.000,1.000,725.000,5.000,0
"03/05/08","03:16:06",52306.000,"cc",28363.602,6.00,6,0.100,42545.000,0.200,4836.000,0.300,2193.000,0.500,1922.000,1.000,810.000,5.000,0
"03/05/08","03:16:12",48548.000,"cc",28336.139,6.00,6,0.100,41138.000,0.200,3941.000,0.300,1489.000,0.500,1458.000,1.000,522.000,5.000,0
"03/05/08","03:16:18",49078.000,"cc",28323.836,6.00,6,0.100,41608.000,0.200,3996.000,0.300,1541.000,0.500,1395.000,1.000,538.000,5.000,0